• în România
  • Lista ţărilor
  • Pe 7 zile
  • Temperatura apei
  • Hartă satelitară
  • Meteo pe hartă
  • Widget-uri
  • user-avatar
    Intrare

    Meteo pe oră la Nottingham

    Astăzi, 17 Octombrie, Miercuri

    Timp Temperatura Precipitaţii Vânt Presiune Umiditate
    00:00 +12°C° 0 mm 4 m/s 755 mmHg 88%
    01:00 +12°C° 0 mm 4 m/s 755 mmHg 89%
    02:00 +12°C° 0 mm 4 m/s 755 mmHg 90%
    03:00 +12°C° 0 mm 3 m/s 755 mmHg 91%
    04:00 +12°C° 0 mm 3 m/s 756 mmHg 92%
    05:00 +11°C° 0 mm 3 m/s 756 mmHg 94%
    06:00 +12°C° 0 mm 2 m/s 756 mmHg 95%
    07:00 +13°C° 0 mm 2 m/s 756 mmHg 92%
    08:00 +13°C° 0 mm 2 m/s 757 mmHg 90%
    09:00 +14°C° 0 mm 2 m/s 757 mmHg 87%
    10:00 +14°C° 0 mm 2 m/s 757 mmHg 81%
    11:00 +15°C° 0 mm 2 m/s 758 mmHg 75%
    12:00 +16°C° 0 mm 2 m/s 758 mmHg 69%
    13:00 +16°C° 0 mm 2 m/s 758 mmHg 69%
    14:00 +16°C° 0 mm 3 m/s 759 mmHg 69%
    15:00 +16°C° 0 mm 3 m/s 759 mmHg 69%
    16:00 +14°C° 0 mm 3 m/s 759 mmHg 74%
    17:00 +13°C° 0 mm 3 m/s 760 mmHg 78%
    18:00 +11°C° 0 mm 3 m/s 761 mmHg 83%
    19:00 +11°C° 0 mm 3 m/s 761 mmHg 84%
    20:00 +10°C° 0 mm 3 m/s 762 mmHg 86%
    21:00 +10°C° 0 mm 3 m/s 762 mmHg 87%
    22:00 +10°C° 0 mm 3 m/s 763 mmHg 86%
    23:00 +9°C° 0 mm 3 m/s 763 mmHg 85%

    Mâine, 18 Octombrie, Joi

    Timp Temperatura Precipitaţii Vânt Presiune Umiditate
    00:00 +9°C° 0 mm 3 m/s 763 mmHg 84%
    01:00 +9°C° 0 mm 3 m/s 763 mmHg 82%
    02:00 +8°C° 0 mm 3 m/s 764 mmHg 81%
    03:00 +8°C° 0 mm 3 m/s 764 mmHg 79%
    04:00 +8°C° 0 mm 3 m/s 764 mmHg 78%
    05:00 +8°C° 0 mm 3 m/s 764 mmHg 78%
    06:00 +7°C° 0 mm 3 m/s 764 mmHg 78%
    07:00 +8°C° 0 mm 3 m/s 765 mmHg 76%
    08:00 +9°C° 0 mm 3 m/s 765 mmHg 74%
    09:00 +9°C° 0 mm 3 m/s 765 mmHg 72%
    10:00 +10°C° 0 mm 2 m/s 765 mmHg 69%
    11:00 +12°C° 0 mm 2 m/s 765 mmHg 65%
    12:00 +13°C° 0 mm 2 m/s 765 mmHg 62%
    13:00 +14°C° 0 mm 2 m/s 765 mmHg 61%
    14:00 +14°C° 0 mm 2 m/s 764 mmHg 61%
    15:00 +14°C° 0 mm 2 m/s 764 mmHg 60%
    16:00 +13°C° 0 mm 2 m/s 764 mmHg 65%
    17:00 +10°C° 0 mm 2 m/s 764 mmHg 70%
    18:00 +10°C° 0 mm 1 m/s 764 mmHg 74%
    19:00 +10°C° 0 mm 1 m/s 765 mmHg 77%
    20:00 +9°C° 0 mm 1 m/s 765 mmHg 79%
    21:00 +9°C° 0 mm 1 m/s 765 mmHg 81%
    22:00 +9°C° 0 mm 1 m/s 765 mmHg 83%
    23:00 +8°C° 0 mm 1 m/s 764 mmHg 85%

    Poimâine, 19 Octombrie, Vineri

    Timp Temperatura Precipitaţii Vânt Presiune Umiditate
    00:00 +8°C° 0 mm 1 m/s 764 mmHg 86%
    01:00 +8°C° 0 mm 1 m/s 764 mmHg 87%
    02:00 +8°C° 0 mm 1 m/s 764 mmHg 88%
    03:00 +7°C° 0 mm 0 m/s 764 mmHg 88%
    04:00 +7°C° 0 mm 0 m/s 764 mmHg 89%
    05:00 +7°C° 0 mm 1 m/s 764 mmHg 89%
    06:00 +7°C° 0 mm 1 m/s 764 mmHg 89%
    07:00 +8°C° 0 mm 1 m/s 764 mmHg 86%
    08:00 +9°C° 0 mm 1 m/s 764 mmHg 83%
    09:00 +11°C° 0 mm 1 m/s 765 mmHg 80%
    10:00 +12°C° 0 mm 1 m/s 765 mmHg 76%
    11:00 +13°C° 0 mm 2 m/s 765 mmHg 71%
    12:00 +14°C° 0 mm 2 m/s 765 mmHg 67%
    13:00 +15°C° 0 mm 2 m/s 765 mmHg 66%
    14:00 +15°C° 0 mm 2 m/s 765 mmHg 66%
    15:00 +15°C° 0 mm 2 m/s 765 mmHg 65%
    16:00 +14°C° 0 mm 1 m/s 765 mmHg 70%
    17:00 +12°C° 0 mm 1 m/s 765 mmHg 75%
    18:00 +11°C° 0 mm 1 m/s 765 mmHg 81%
    19:00 +11°C° 0 mm 1 m/s 766 mmHg 82%
    20:00 +11°C° 0 mm 1 m/s 766 mmHg 83%
    21:00 +10°C° 0 mm 1 m/s 766 mmHg 84%
    22:00 +10°C° 0 mm 1 m/s 766 mmHg 85%
    23:00 +10°C° 0 mm 1 m/s 766 mmHg 86%

    20 Octombrie, Sâmbătă

    Timp Temperatura Precipitaţii Vânt Presiune Umiditate
    00:00 +10°C° 0 mm 1 m/s 766 mmHg 87%
    01:00 +10°C° 0 mm 1 m/s 767 mmHg 88%
    02:00 +9°C° 0 mm 1 m/s 767 mmHg 89%
    03:00 +9°C° 0 mm 1 m/s 767 mmHg 90%
    04:00 +9°C° 0 mm 1 m/s 767 mmHg 90%
    05:00 +9°C° 0 mm 1 m/s 767 mmHg 90%
    06:00 +9°C° 0 mm 1 m/s 767 mmHg 91%
    07:00 +9°C° 0 mm 2 m/s 767 mmHg 88%
    08:00 +10°C° 0 mm 2 m/s 768 mmHg 85%
    09:00 +12°C° 0 mm 2 m/s 768 mmHg 82%
    10:00 +13°C° 0 mm 2 m/s 768 mmHg 77%
    11:00 +13°C° 0 mm 3 m/s 768 mmHg 72%
    12:00 +14°C° 0 mm 3 m/s 768 mmHg 67%
    13:00 +16°C° 0 mm 3 m/s 768 mmHg 67%
    14:00 +16°C° 0 mm 3 m/s 767 mmHg 66%
    15:00 +16°C° 0 mm 3 m/s 767 mmHg 66%
    16:00 +14°C° 0 mm 3 m/s 767 mmHg 71%
    17:00 +14°C° 0 mm 2 m/s 767 mmHg 76%
    18:00 +12°C° 0 mm 2 m/s 767 mmHg 81%
    19:00 +12°C° 0 mm 2 m/s 767 mmHg 83%
    20:00 +12°C° 0 mm 2 m/s 767 mmHg 85%
    21:00 +10°C° 0 mm 2 m/s 767 mmHg 86%
    22:00 +10°C° 0 mm 2 m/s 767 mmHg 88%
    23:00 +10°C° 0 mm 2 m/s 767 mmHg 89%

    21 Octombrie, Duminică

    Timp Temperatura Precipitaţii Vânt Presiune Umiditate
    00:00 +10°C° 0 mm 2 m/s 767 mmHg 90%
    01:00 +10°C° 0 mm 2 m/s 767 mmHg 90%
    02:00 +9°C° 0 mm 2 m/s 766 mmHg 90%
    03:00 +9°C° 0 mm 3 m/s 766 mmHg 91%
    04:00 +9°C° 0 mm 3 m/s 766 mmHg 90%
    05:00 +9°C° 0 mm 3 m/s 766 mmHg 90%
    06:00 +9°C° 0 mm 3 m/s 765 mmHg 90%
    07:00 +10°C° 0 mm 3 m/s 765 mmHg 86%
    08:00 +11°C° 0 mm 4 m/s 765 mmHg 83%
    09:00 +12°C° 0 mm 4 m/s 765 mmHg 80%
    10:00 +13°C° 0 mm 4 m/s 765 mmHg 78%
    11:00 +14°C° 0 mm 4 m/s 765 mmHg 77%
    12:00 +15°C° 0 mm 4 m/s 765 mmHg 75%
    13:00 +17°C° 0 mm 4 m/s 765 mmHg 76%
    14:00 +17°C° 0 mm 4 m/s 764 mmHg 77%
    15:00 +18°C° 0 mm 4 m/s 764 mmHg 78%
    16:00 +17°C° 0 mm 4 m/s 765 mmHg 80%
    17:00 +15°C° 0 mm 4 m/s 765 mmHg 83%
    18:00 +14°C° 0 mm 4 m/s 766 mmHg 86%
    19:00 +13°C° 0 mm 4 m/s 766 mmHg 83%
    20:00 +12°C° 0 mm 4 m/s 767 mmHg 79%
    21:00 +10°C° 0 mm 5 m/s 768 mmHg 76%
    22:00 +10°C° 0 mm 4 m/s 768 mmHg 76%
    23:00 +8°C° 0 mm 4 m/s 769 mmHg 76%

    22 Octombrie, Luni

    Timp Temperatura Precipitaţii Vânt Presiune Umiditate
    00:00 +8°C° 0 mm 3 m/s 769 mmHg 75%
    01:00 +8°C° 0 mm 3 m/s 769 mmHg 74%
    02:00 +7°C° 0 mm 3 m/s 770 mmHg 73%
    03:00 +7°C° 0 mm 3 m/s 770 mmHg 72%
    04:00 +7°C° 0 mm 3 m/s 770 mmHg 72%
    05:00 +7°C° 0 mm 3 m/s 770 mmHg 72%
    06:00 +5°C° 0 mm 3 m/s 771 mmHg 72%
    07:00 +7°C° 0 mm 3 m/s 771 mmHg 71%
    08:00 +8°C° 0 mm 3 m/s 771 mmHg 69%
    09:00 +8°C° 0 mm 3 m/s 771 mmHg 67%
    10:00 +9°C° 0 mm 3 m/s 771 mmHg 64%
    11:00 +10°C° 0 mm 3 m/s 771 mmHg 60%
    12:00 +11°C° 0 mm 4 m/s 771 mmHg 57%
    13:00 +11°C° 0 mm 4 m/s 771 mmHg 58%
    14:00 +11°C° 0 mm 4 m/s 771 mmHg 60%
    15:00 +11°C° 0 mm 4 m/s 770 mmHg 62%
    16:00 +10°C° 0 mm 4 m/s 770 mmHg 67%
    17:00 +8°C° 0 mm 4 m/s 770 mmHg 72%
    18:00 +8°C° 0 mm 3 m/s 770 mmHg 77%
    19:00 +8°C° 0 mm 3 m/s 770 mmHg 78%
    20:00 +8°C° 0 mm 3 m/s 770 mmHg 80%
    21:00 +7°C° 0 mm 4 m/s 770 mmHg 81%
    22:00 +7°C° 0 mm 4 m/s 770 mmHg 83%
    23:00 +7°C° 0 mm 4 m/s 770 mmHg 84%
    Arată mai mult